Regional Weather Roundup
Issued by NWS

Home | Current Version | Previous Version | Text Only | Print | Product List | Glossary On
Versions: 1 2 3 4 5 6 7 8 9 10 11 12 13 14 15 16 17 18 19 20 21 22 23 24 25 26 27 28 29 30 31 32 33 34 35 36 37 38 39 40 41 42 43 44 45 46 47 48 49 50
000
ASUS43 KOAX 280310
RWRNE

WEATHER ROUNDUP FOR NEBRASKA
NATIONAL WEATHER SERVICE OMAHA NE
900 PM CST THU NOV 27 2014

NOTES: SATELLITE DATA IS BEING USED TO AUGMENT CLOUD COVER ABOVE
       12000 FEET.
       "FAIR" INDICATES FEW OR NO CLOUDS BELOW 12,000 FEET WITH NO
       SIGNIFICANT WEATHER AND/OR OBSTRUCTIONS TO VISIBILITY.

  * THESE STATIONS DO NOT REPORT WEATHER SUCH AS RAIN...SNOW OR FOG.

NEZ001>004-019>022-054>056-280400-
NEBRASKA PANHANDLE

CITY           SKY/WX    TMP DP  RH WIND       PRES   REMARKS
SCOTTSBLUFF    CLEAR     37  28  70 CALM      29.99S
ALLIANCE       CLEAR     34  26  72 W14       29.97S WCI  25
CHADRON        CLEAR    N/A N/A N/A SW3       29.95S
KIMBALL        CLEAR     43  28  53 W14       30.01F
SIDNEY         CLEAR     36  26  67 W12       30.03S WCI  28
$$

NEZ057>060-069>072-079>082-280400-
SOUTHWEST NEBRASKA

CITY           SKY/WX    TMP DP  RH WIND       PRES   REMARKS
NORTH PLATTE   CLEAR     29  20  69 CALM      29.99F
IMPERIAL       CLEAR     42  27  55 W13       30.00F
LEXINGTON      CLEAR     35  22  60 SE6       30.00F WCI  30
MCCOOK         CLEAR     41  26  55 SW10      29.98F
OGALLALA       CLEAR     32  30  91 W6        30.00S WCI  27
$$

NEZ005>010-023>029-035>040-094-280400-
NORTH CENTRAL NEBRASKA

CITY           SKY/WX    TMP DP  RH WIND       PRES   REMARKS
VALENTINE      CLEAR     39  26  59 SW14      29.90F WCI  31
AINSWORTH      CLEAR     36  22  57 S18G24    29.92F WCI  25
BROKEN BOW     CLEAR     28  19  69 SE6       30.00F WCI  22
O`NEILL        CLEAR     30  20  67 S14       30.00F WCI  19
ORD            CLEAR     28  17  63 SE6       30.04F WCI  22
THEDFORD       CLEAR     39  25  57 S8        29.96F WCI  33
$$

NEZ041-046>049-061>064-073>077-083>087-280400-
SOUTH CENTRAL NEBRASKA

CITY           SKY/WX    TMP DP  RH WIND       PRES   REMARKS
GRAND ISLAND   CLEAR     31  17  56 SE12      30.07F WCI  22
AURORA         CLEAR     29  18  61 SE10      30.08F WCI  20
HASTINGS       CLEAR     31  17  56 S12G21    30.05F WCI  22
HEBRON         CLEAR     35  15  44 S13G18    30.13F WCI  26
HOLDREGE       CLEAR     34  20  56 S14       30.01F WCI  25
KEARNEY *      CLEAR     25  16  68 SE7       30.04F WCI  17
YORK           CLEAR     28  19  69 S10       30.11F WCI  19
$$

NEZ011>018-030>034-042>045-280400-
NORTHEAST NEBRASKA

CITY           SKY/WX    TMP DP  RH WIND       PRES   REMARKS
NORFOLK        PTCLDY    21  14  74 SE12      30.11F WCI   9
ALBION         PTCLDY    24  17  72 SE9       30.08F WCI  15
BLAIR          CLEAR     24  15  70 SE14      30.16F WCI  11
COLUMBUS *     PTCLDY    23  12  63 SE9       30.14F WCI  13
FREMONT        PTCLDY    25  17  72 SE15      30.16F WCI  12
TEKAMAH        CLOUDY    21  12  68 SE14      30.20  WCI   8
WAYNE          CLOUDY    20  12  69 SE15      30.15F WCI   7
$$

NEZ050>053-065>068-078-088>093-280400-
SOUTHEAST NEBRASKA

CITY           SKY/WX    TMP DP  RH WIND       PRES   REMARKS
LINCOLN        CLEAR     27  16  63 SE9       30.19F WCI  18
OMAHA EPPLEY   CLEAR     22  14  71 SE12      30.23F WCI  10
BEATRICE       CLEAR     31  20  62 SE10      30.17F WCI  22
FALLS CITY     CLEAR     25  19  78 SE9       30.26F WCI  15
NEBRASKA CITY  CLEAR     25  15  66 SE12      30.21F WCI  14
PLATTSMOUTH    CLEAR     24  15  69 SE15      30.20F WCI  11
$$

NEZ044-045-051>053-067-280400-
OMAHA AREA

CITY           SKY/WX    TMP DP  RH WIND       PRES   REMARKS
OMAHA EPPLEY   CLEAR     22  14  71 SE12      30.23F WCI  10
BLAIR          CLEAR     24  15  70 SE14      30.16F WCI  11
FREMONT        PTCLDY    25  17  72 SE15      30.16F WCI  12
MILLARD        CLEAR     24  16  72 SE7       30.21F WCI  15
OFFUTT AFB     CLEAR     23  15  70 SE9       30.22F WCI  13
PLATTSMOUTH    CLEAR     24  15  69 SE15      30.20F WCI  11
WAHOO          FAIR      23  15  73 SE10      30.18F WCI  12
$$


USA.gov is the U.S. government's official web portal to all federal, state and local government web resources and services.